📊 Raw Sensor Data

Showing records 33301 to 33325 of 84,764 total

ID Distance (ft) Battery V Battery A Int Temp (°F) Int Humid (%) Ext Temp (°F) Solar V RSSI SNR Time Stamp
51476 14.6 3.93 -5 66 44 66 0.00 -74 8 09/09/2025 04:15 AM
51475 14.6 3.99 -5 66 44 66 0.00 -74 8 09/09/2025 04:00 AM
51474 14.6 3.99 -5 66 44 66 0.00 -74 7 09/09/2025 03:45 AM
51473 14.6 3.93 -5 65 44 66 0.00 -75 9 09/09/2025 03:30 AM
51472 14.6 3.93 -5 65 44 66 0.00 -74 8 09/09/2025 03:15 AM
51471 14.6 3.94 -5 65 44 66 0.00 -74 7 09/09/2025 03:00 AM
51470 14.6 3.94 -5 65 44 66 0.00 -73 8 09/09/2025 02:45 AM
51469 14.6 3.94 -5 65 44 66 0.00 -74 8 09/09/2025 02:30 AM
51468 14.6 3.94 -5 65 44 65 0.00 -74 8 09/09/2025 02:15 AM
51467 14.6 3.94 -5 65 44 65 0.00 -74 8 09/09/2025 02:00 AM
51466 14.6 3.94 -5 65 44 65 0.00 -66 8 09/09/2025 01:45 AM
51465 14.6 3.99 -5 64 44 65 0.00 -65 8 09/09/2025 01:30 AM
51464 14.6 4.00 -5 64 44 64 0.00 -66 7 09/09/2025 01:15 AM
51463 14.6 3.94 -5 64 44 65 0.00 -65 8 09/09/2025 01:00 AM
51462 14.6 3.94 -5 64 44 65 0.00 -66 7 09/09/2025 12:45 AM
51461 14.6 3.94 -5 64 44 65 0.00 -67 8 09/09/2025 12:30 AM
51460 14.6 3.94 -5 64 44 65 0.00 -65 8 09/09/2025 12:15 AM
51459 14.6 4.00 -5 64 44 66 0.00 -66 8 09/09/2025 12:00 AM
51458 14.6 4.00 -5 63 44 65 0.00 -66 8 09/08/2025 11:45 PM
51457 14.6 3.94 -5 62 45 64 0.00 -68 8 09/08/2025 11:30 PM
51456 14.6 3.94 -5 62 45 62 0.00 -68 7 09/08/2025 11:15 PM
51455 14.7 3.95 -5 62 45 63 0.00 -66 8 09/08/2025 11:00 PM
51454 14.7 3.95 -5 62 45 64 0.00 -66 8 09/08/2025 10:45 PM
51453 14.6 4.00 -5 63 45 65 0.00 -67 8 09/08/2025 10:30 PM
51452 14.6 3.95 -5 63 46 64 0.00 -66 8 09/08/2025 10:15 PM